Regional Weather Roundup
Issued by NWS

Home | Current Version | Previous Version | Graphics & Text | Print | Product List | Glossary On
Versions: 1 2 3 4 5 6 7 8 9 10 11 12 13 14 15 16 17 18 19 20 21 22 23 24 25 26 27 28 29 30 31 32 33 34 35 36 37 38 39 40 41 42 43 44 45 46 47 48 49 50
000
ASUS43 KFSD 280110
RWRSD

WEATHER ROUNDUP FOR SOUTH DAKOTA
NATIONAL WEATHER SERVICE SIOUX FALLS SD
800 PM CDT WED JUL 27 2016

NOTE: "FAIR" INDICATES FEW OR NO CLOUDS BELOW 12,000 FEET WITH NO
SIGNIFICANT WEATHER AND/OR OBSTRUCTIONS TO VISIBILITY.


SDZ001>005-009-010-012>017-280200-
NORTHWEST AND NORTH CENTRAL SOUTH DAKOTA

CITY           SKY/WX    TMP DP  RH WIND       PRES   REMARKS
BUFFALO          N/A     75  54  47 E10       30.07R
FAITH            N/A     74  58  57 NE9       30.10R
MOBRIDGE       LGT RAIN  74  62  66 NE10      30.05R
$$

SDZ012>016-024>037-041>051-057-063-072>074-280200-
SOUTHWEST AND SOUTH CENTRAL SOUTH DAKOTA

CITY           SKY/WX    TMP DP  RH WIND       PRES   REMARKS
RAPID CTY ARPT SUNNY     79  58  48 NE7       30.11R
PIERRE         PTSUNNY   72  63  73 E7        30.04S
CUSTER         CLOUDY    66  57  72 E9        30.24R
ELLSWORTH AFB  SUNNY     78  60  53 E9        30.11R
PHILIP         CLOUDY    71  61  70 SE6       30.08R
PINE RIDGE     SUNNY     77  63  61 E13       30.10R
WINNER         TSTM      67  60  78 W18G35    30.09R
$$

SDZ004>011-016>023-039-040-280200-
NORTHEAST SOUTH DAKOTA

CITY           SKY/WX    TMP DP  RH WIND       PRES   REMARKS
ABERDEEN       MOSUNNY   76  61  59 N8        30.06S
WATERTOWN      CLEAR     75  56  51 NE12      30.04S
BROOKINGS      CLEAR     74  63  68 N9        30.02R
SISSETON         N/A     74  58  57 N9        30.03R
$$

SDZ017-020-022-023-036>040-048>070-280200-
SOUTHEAST SOUTH DAKOTA

CITY           SKY/WX    TMP DP  RH WIND       PRES   REMARKS
SIOUX FALLS    MOCLDY    76  64  66 N7        29.99R
HURON          CLOUDY    78  63  59 N8        30.03R
CHAMBERLAIN    PTSUNNY   80  65  59 N5        30.07R
MITCHELL       MOCLDY    79  64  60 NE7       30.02R
YANKTON        CLOUDY    81  66  61 N10       29.97R
$$

ABBREVIATIONS USED IN REMARKS
   TC - TEMPERATURE IN CELSIUS
  WCI - WIND CHILL INDEX
   HX - HEAT INDEX
  VSB - VISIBILITY




USA.gov is the U.S. government's official web portal to all federal, state and local government web resources and services.